Location: Sternwarte auf dem Internationalen Platz Vogelsang IP
(50.5721°N, 6.4398°E)
Time: 03:15:18
(UTC+01:00)

Transit 2A Rocket - Pass Details

Date: 17 December 2025
Orbit: 581 x 903 km, 66.7° (Epoch: 14 January)

Event Time Altitude Azimuth Distance (km) Brightness Sun altitude
Rises 17:11:16 0° 319° (NW) 3,532 8.6 -6.2°
Reaches altitude 10° 17:13:58 10° 312° (NW) 2,576 8.0 -6.6°
Maximum altitude 17:19:28 39° 246° (WSW) 1,294 7.0 -7.4°
Drops below altitude 10° 17:24:41 10° 180° (S) 2,437 8.0 -8.1°
Sets 17:27:11 0° 172° (S) 3,320 8.6 -8.5°
